Torna al catalogo

STARLINK-31678

AttivoComunicazioniVLEO
NORAD 59493·PAYLOAD·🇺🇸 United States

Lanciato Apr 13, 2024 da Cape Canaveral Space Force Station

Loading…

Prossimi Passaggi (prossime 24 ore)

TLE

AggiornatoSource: CelesTrak SupGP

Epoca: Sep 14, 2026, 21:37 UTC

1 59493C 24071K   26257.90118056  .00000777  00000+0  28153-4 0  2576
2 59493  43.0016 358.8949 0001523 265.6528 101.5893 15.27564636    10

Traccia STARLINK-31678 in tempo reale con AllMySat

Download on the App Store